CAPE
0 0 0 0 0 0 0 0 0 0 0 0 0 0 0 0 0 0 0 0 0 0 0 0 0 0 0 0 6 39 15 1 0 37 83 331 272 467 347 298 206 111 186 93 269
0 0 0 0 0 0 0 0 0 0 0 0 0 0 0 0 0 0 0 0 0 0 0 0 0 0 0 0 0 0 4 0 0 73 115 366 285 475 458 390 338 224 115 191 265
0 0 0 0 0 0 0 0 0 0 0 0 0 0 0 0 0 0 0 0 0 0 0 0 0 0 0 0 0 13 11 13 97 252 351 367 401 347 459 357 329 189 35 237 315
0 0 0 0 0 0 0 0 0 0 0 0 0 0 0 0 0 0 0 0 0 0 0 0 0 0 0 0 0 9 27 22 162 397 407 394 423 363 345 324 242 128 92 243 290
0 0 0 0 0 0 0 0 0 0 0 0 0 0 0 0 0 0 0 0 0 0 0 0 0 0 0 0 0 0 6 292 105 137 302 401 393 424 308 265 289 217 188 225 313
0 0 0 0 0 0 0 0 0 0 0 0 0 0 0 0 0 0 0 0 0 0 0 0 0 0 0 0 0 0 0 51 106 126 260 414 475 400 324 385 380 268 208 306 326
0 0 0 0 0 0 0 0 0 0 0 0 0 0 0 0 0 0 0 0 0 0 0 0 0 0 0 0 0 0 0 0 0 0 147 566 365 211 467 403 469 400 342 407 462
0 0 0 0 0 0 0 0 0 0 0 0 0 0 0 0 0 0 0 0 0 0 0 0 0 0 0 0 0 0 0 0 0 0 88 401 0 203 416 503 511 518 484 418 522
0 0 0 0 0 0 0 0 0 0 0 0 0 0 0 0 0 0 0 0 0 0 0 0 0 0 0 0 0 0 0 0 0 0 41 349 0 195 480 529 612 639 600 532 547
0 0 0 0 0 0 0 0 0 0 0 0 0 0 0 0 0 0 0 0 0 0 0 0 0 0 0 0 0 0 0 0 0 0 0 0 0 23 476 549 552 659 730 630 589
0 0 0 0 0 0 0 0 0 0 0 0 0 0 0 0 0 0 0 0 0 0 0 0 0 0 0 0 0 0 0 0 0 0 0 0 0 0 150 430 574 551 612 644 598
0 0 0 0 0 0 0 0 0 0 0 0 0 0 0 0 0 0 0 0 0 0 0 0 0 0 0 0 0 0 0 0 0 0 0 0 0 0 186 280 615 641 559 481 464
0 0 0 0 0 0 0 0 0 0 0 0 0 0 0 0 0 0 0 0 0 0 0 0 0 0 0 0 0 0 0 0 0 0 1 8 0 0 1 142 528 631 663 520 315
1 0 0 0 0 0 0 0 0 0 0 0 0 0 0 0 0 0 0 0 0 0 0 0 0 0 0 0 0 0 0 0 0 0 0 0 0 0 0 0 0 18 487 508 298
0 0 0 0 0 0 0 0 0 0 0 0 0 0 0 0 0 0 0 0 0 0 0 0 0 0 0 0 0 0 0 0 0 0 0 0 0 0 0 0 0 0 195 530 373
0 0 0 0 0 0 0 0 0 0 0 0 0 0 0 0 0 0 0 0 0 0 0 0 0 0 0 0 0 0 0 0 0 0 0 0 0 0 0 0 0 0 53 514 539
0 0 0 0 0 0 0 0 0 0 0 0 0 0 0 0 0 0 0 0 0 0 0 0 0 0 0 0 0 0 0 0 0 0 0 0 0 0 0 0 0 1 29 462 653
0 0 0 0 0 0 0 0 0 0 0 0 0 0 0 0 0 0 0 0 0 0 0 0 0 0 0 0 0 0 0 0 0 0 0 0 0 0 0 0 12 46 53 454 691
0 0 0 0 0 0 0 0 0 0 0 0 0 0 0 0 0 0 0 0 0 0 0 0 0 0 0 0 0 0 0 0 0 0 0 0 0 0 0 0 0 3 98 270 506
0 0 0 0 0 0 0 0 0 0 0 0 0 0 0 0 0 0 0 0 0 0 0 0 0 0 0 0 0 0 0 0 0 0 0 0 0 0 0 0 0 0 0 189 327
0 0 0 0 0 0 0 0 0 0 0 0 0 0 0 0 0 0 0 0 0 0 0 0 0 0 0 0 0 0 0 0 0 0 0 0 0 0 0 0 0 0 19 69 232
0 0 0 0 0 0 0 0 0 0 0 0 0 0 0 0 0 0 0 0 0 0 0 0 0 0 0 0 0 0 0 0 0 0 0 0 0 0 0 0 0 0 0 123 226
0 0 0 0 0 0 0 0 0 0 0 0 0 0 0 0 0 0 0 0 0 0 0 0 0 0 0 0 0 0 40 0 0 0 0 0 0 0 0 0 1 11 26 45 344
0 0 0 0 0 0 0 0 0 0 0 0 0 0 0 0 0 0 0 0 0 0 0 0 0 0 0 0 0 0 0 1 0 8 0 0 0 0 0 4 0 70 75 74 216
0 0 0 0 0 0 0 0 0 0 0 0 0 0 0 0 0 0 0 0 0 0 0 0 0 0 0 0 0 0 0 0 0 19 49 87 13 46 20 3 91 244 202 234 187
0 0 0 0 0 0 0 0 0 0 0 0 0 0 0 0 0 0 0 0 0 0 0 0 0 0 0 0 0 0 0 0 0 0 0 28 6 2 1 383 472 499 334 285 318
0 0 0 0 0 0 0 0 0 0 0 0 0 0 0 0 0 0 0 0 0 0 0 0 0 0 0 0 0 0 0 0 0 0 0 0 3 209 469 439 360 341 245 317 306
CIN
0 0 0 0 0 0 0 0 0 0 0 0 0 0 0 0 0 0 0 0 0 0 0 0 0 0 0 0 -131 -226 -90 -16 0 -99 -70 -22 -15 -31 -60 -43 -83 -142 -88 -156 -153
0 0 0 0 0 0 0 0 0 0 0 0 0 0 0 0 0 0 0 0 0 0 0 0 0 0 0 0 0 0 -37 0 0 -66 -33 -19 -18 -21 -23 -38 -52 -82 -154 -185 -151
0 0 0 0 0 0 0 0 0 0 0 0 0 0 0 0 0 0 0 0 0 0 0 0 0 0 0 0 0 -131 -82 -96 -67 -49 -37 -30 -23 -42 -26 -27 -26 -31 -100 -151 -113
0 0 0 0 0 0 0 0 0 0 0 0 0 0 0 0 0 0 0 0 0 0 0 0 0 0 0 0 0 -82 -107 -102 -66 -61 -48 -43 -52 -48 -53 -30 -40 -44 -100 -132 -97
0 0 0 0 0 0 0 0 0 0 0 0 0 0 0 0 0 0 0 0 0 0 0 0 0 0 0 0 0 0 -12 -83 -119 -115 -86 -76 -70 -76 -84 -107 -85 -88 -103 -110 -86
0 0 0 0 0 0 0 0 0 0 0 0 0 0 0 0 0 0 0 0 0 0 0 0 0 0 0 0 0 0 0 -64 -122 -121 -98 -84 -95 -120 -116 -140 -131 -113 -92 -91 -88
0 0 0 0 0 0 0 0 0 0 0 0 0 0 0 0 0 0 0 0 0 0 0 0 0 0 0 0 0 0 0 0 0 0 -116 -114 -75 -87 -142 -176 -145 -124 -97 -93 -82
0 0 0 0 0 0 0 0 0 0 0 0 0 0 0 0 0 0 0 0 0 0 0 0 0 0 0 0 0 0 0 0 0 0 -165 -114 0 -73 -152 -153 -144 -147 -137 -109 -92
0 0 0 0 0 0 0 0 0 0 0 0 0 0 0 0 0 0 0 0 0 0 0 0 0 0 0 0 0 0 0 0 0 0 -96 -126 0 -78 -176 -158 -127 -148 -140 -129 -104
0 0 0 0 0 0 0 0 0 0 0 0 0 0 0 0 0 0 0 0 0 0 0 0 0 0 0 0 0 0 0 0 0 0 0 0 0 -126 -164 -173 -130 -137 -145 -145 -117
0 0 0 0 0 0 0 0 0 0 0 0 0 0 0 0 0 0 0 0 0 0 0 0 0 0 0 0 0 0 0 0 0 0 0 0 0 0 -131 -190 -169 -163 -164 -167 -141
0 0 0 0 0 0 0 0 0 0 0 0 0 0 0 0 0 0 0 0 0 0 0 0 0 0 0 0 0 0 0 0 0 0 0 0 0 0 -89 -125 -163 -154 -179 -184 -155
0 0 0 0 0 0 0 0 0 0 0 0 0 0 0 0 0 0 0 0 0 0 0 0 0 0 0 0 0 0 0 0 0 0 -17 -134 0 0 -23 -183 -204 -214 -226 -196 -182
0 0 0 0 0 0 0 0 0 0 0 0 0 0 0 0 0 0 0 0 0 0 0 0 0 0 0 0 0 0 0 0 0 0 0 0 0 0 0 0 0 -60 -251 -243 -239
0 0 0 0 0 0 0 0 0 0 0 0 0 0 0 0 0 0 0 0 0 0 0 0 0 0 0 0 0 0 0 0 0 0 0 0 0 0 0 0 0 0 -258 -255 -243
0 0 0 0 0 0 0 0 0 0 0 0 0 0 0 0 0 0 0 0 0 0 0 0 0 0 0 0 0 0 0 0 0 0 0 0 0 0 0 0 0 0 -261 -280 -240
0 0 0 0 0 0 0 0 0 0 0 0 0 0 0 0 0 0 0 0 0 0 0 0 0 0 0 0 0 0 0 0 0 0 0 0 0 0 0 0 0 -101 -198 -249 -269
0 0 0 0 0 0 0 0 0 0 0 0 0 0 0 0 0 0 0 0 0 0 0 0 0 0 0 0 0 0 0 0 0 0 0 0 0 0 0 0 -136 -209 -207 -245 -260
0 0 0 0 0 0 0 0 0 0 0 0 0 0 0 0 0 0 0 0 0 0 0 0 0 0 0 0 0 0 0 0 0 0 0 0 0 0 0 0 0 -167 -131 -175 -260
0 0 0 0 0 0 0 0 0 0 0 0 0 0 0 0 0 0 0 0 0 0 0 0 0 0 0 0 0 0 0 0 0 0 0 0 0 0 0 0 0 0 0 -156 -233
0 0 0 0 0 0 0 0 0 0 0 0 0 0 0 0 0 0 0 0 0 0 0 0 0 0 0 0 0 0 0 0 0 0 0 0 0 0 0 0 0 0 -220 -217 -195
0 0 0 0 0 0 0 0 0 0 0 0 0 0 0 0 0 0 0 0 0 0 0 0 0 0 0 0 0 0 0 0 0 0 0 0 0 0 0 0 0 0 0 -284 -288
0 0 0 0 0 0 0 0 0 0 0 0 0 0 0 0 0 0 0 0 0 0 0 0 0 0 0 0 0 0 -158 0 0 0 0 0 0 0 -8 -24 -28 -223 -268 -320 -333
0 0 0 0 0 0 0 0 0 0 0 0 0 0 0 0 0 0 0 0 0 0 0 0 0 0 0 0 0 0 0 -42 0 -63 0 0 0 0 -25 -122 -13 -157 -284 -328 -362
0 0 0 0 0 0 0 0 0 0 0 0 0 0 0 0 0 0 0 0 0 0 0 0 0 0 0 0 0 0 0 0 0 -145 -133 -90 -129 -134 -132 -208 -225 -309 -330 -331 -383
0 0 0 0 0 0 0 0 0 0 0 0 0 0 0 0 0 0 0 0 0 0 0 0 0 0 0 0 0 0 0 0 0 0 0 -163 -234 -170 -221 -216 -205 -275 -349 -418 -453
0 0 0 0 0 0 0 0 0 0 0 0 0 0 0 0 0 0 0 0 0 0 0 0 0 0 0 0 0 0 0 0 0 0 0 0 -184 -129 -158 -169 -268 -372 -497 -471 -553
Wind_Speed
16 16 16 16 16 16 16 17 17 18 18 17 17 17 16 16 16 17 20 21 20 17 18 15 13 11 12 17 17 18 18 20 19 20 20 16 14 13 13 11 12 12 15 14 15
16 16 16 16 16 16 16 16 17 18 18 18 17 17 16 16 16 18 19 20 21 19 17 14 12 11 11 17 18 18 19 21 19 18 19 16 14 13 11 10 10 12 14 12 14
15 15 16 16 15 16 16 16 17 18 18 18 18 17 17 16 17 18 16 21 23 21 19 16 13 14 20 18 17 18 19 20 20 17 15 17 15 14 13 11 9 9 10 11 12
15 15 15 15 15 15 15 16 17 18 18 18 18 18 17 17 10 18 14 21 24 22 19 16 15 18 18 19 18 18 18 17 17 19 19 18 16 15 11 13 12 10 12 15 15
14 14 15 15 15 15 15 15 16 17 18 19 18 18 18 19 19 16 15 22 23 22 19 17 17 18 19 19 18 20 20 16 16 14 16 15 14 15 12 12 14 11 12 14 15
14 14 14 14 14 15 15 15 16 17 18 19 19 18 20 20 19 14 18 21 22 21 19 17 16 16 17 18 17 16 17 12 16 15 16 15 15 15 17 13 13 12 11 11 11
14 14 14 15 15 15 15 16 16 17 18 19 19 19 21 21 19 17 20 21 20 18 15 16 15 15 12 15 15 16 21 20 20 18 17 17 13 11 14 13 12 12 11 11 11
16 15 15 15 16 16 16 17 17 17 17 18 18 18 22 21 21 21 18 16 17 16 14 14 14 13 14 12 15 17 18 23 24 20 19 17 16 16 12 10 11 11 9 10 14
18 18 17 17 17 17 17 16 15 14 12 12 14 15 16 20 21 7 13 10 11 11 11 12 12 12 12 14 14 18 20 26 24 21 19 15 5 14 12 8 8 8 9 10 13
20 20 20 19 19 18 17 16 12 12 12 13 14 15 14 11 10 6 8 8 8 8 9 10 11 9 11 14 12 19 21 8 17 23 11 8 11 8 10 7 4 4 5 6 11
22 22 21 21 20 19 15 12 14 15 14 12 12 12 12 15 11 7 5 7 8 9 6 11 5 7 5 10 9 10 15 19 18 10 11 10 6 13 4 2 2 4 6 7 11
24 23 23 22 21 20 14 13 13 13 17 14 11 16 13 13 13 9 5 5 7 5 9 9 3 4 9 10 11 13 2 21 8 21 15 14 7 9 5 5 4 5 7 10 7
25 24 23 22 21 14 12 13 12 16 15 15 13 11 10 7 9 8 3 5 8 7 9 8 9 10 10 9 7 5 5 21 24 31 19 22 12 15 16 9 5 5 10 12 12
24 23 22 19 14 11 11 11 17 14 15 15 13 13 8 9 10 10 3 4 10 8 9 12 9 1 2 3 4 13 10 19 28 30 29 24 28 25 16 16 3 2 9 11 13
21 21 20 13 11 10 11 17 10 10 13 15 13 11 8 7 11 9 7 4 5 9 8 9 10 9 8 7 7 14 17 28 27 22 24 20 22 16 24 25 29 21 8 11 15
21 20 13 10 11 13 16 10 11 11 14 12 12 11 8 9 13 11 7 9 10 8 9 5 13 11 9 12 9 19 20 17 17 17 17 21 20 19 21 28 27 23 15 12 13
19 15 12 10 9 14 11 11 12 13 13 13 13 10 9 6 11 12 7 5 6 10 7 8 3 5 9 15 11 13 17 22 17 17 23 19 20 16 27 26 24 21 17 13 13
15 18 12 11 12 14 10 12 12 12 12 14 13 9 10 11 11 13 12 11 10 12 17 20 18 12 13 12 11 12 18 17 18 22 31 19 20 22 21 24 22 20 17 13 11
19 18 15 14 12 10 11 14 13 12 15 15 10 10 11 12 11 12 14 14 15 14 9 14 14 15 17 13 11 15 15 17 18 21 22 20 22 25 18 22 22 20 17 12 8
16 18 17 14 13 11 12 13 12 13 15 12 11 13 12 14 13 13 14 16 16 17 13 16 17 16 18 14 16 11 11 15 16 20 23 21 23 23 24 24 24 24 22 10 8
15 17 18 15 14 12 10 13 15 14 14 13 12 12 12 13 15 15 16 17 19 20 17 18 17 19 19 15 18 15 14 14 18 18 22 27 22 17 24 26 26 25 23 17 10
16 17 15 16 13 13 12 14 17 16 16 14 13 13 12 14 14 14 14 16 20 20 21 22 22 22 26 21 19 17 17 16 17 19 20 24 26 19 25 28 23 24 25 23 15
16 15 15 16 13 13 14 12 14 15 16 14 13 14 13 14 15 14 14 15 20 20 19 20 19 26 24 19 19 19 17 18 19 21 20 24 26 20 27 27 26 25 26 26 21
15 15 15 15 14 15 14 13 12 16 15 15 13 15 14 14 17 15 16 17 23 20 20 18 19 17 20 24 24 24 23 27 24 22 24 23 29 29 30 30 30 30 29 28 25
17 15 15 15 15 15 14 14 13 13 15 17 16 17 17 17 18 17 18 22 21 21 19 20 20 21 22 24 24 22 23 27 27 31 30 30 35 36 34 35 34 33 31 29 27
17 17 16 16 16 14 16 15 15 16 17 17 17 18 18 18 18 20 20 20 21 18 18 22 24 24 28 25 24 23 20 24 27 31 37 38 49 39 38 36 34 32 32 29 28
20 18 17 18 16 15 15 15 16 15 16 17 18 18 18 18 21 21 21 21 21 23 23 23 24 24 26 25 25 26 23 22 26 27 31 41 44 37 35 35 33 32 31 32 30
Wind_Direction
291 286 282 275 275 272 264 258 252 245 242 242 243 241 242 248 242 210 189 169 157 107 130 165 166 220 163 53 79 73 5 1 8 11 7 51 39 13 18 35 11 3 360 21 94
285 282 279 275 271 269 264 255 247 242 241 240 237 235 238 249 225 189 175 145 134 132 173 207 238 249 268 64 65 42 8 9 33 51 42 60 63 46 42 38 31 16 358 56 89
277 274 274 271 267 268 262 251 245 241 240 237 234 233 235 232 196 180 213 163 155 158 154 166 175 122 56 87 54 48 21 22 33 71 68 54 57 45 36 35 66 57 46 74 91
273 269 266 265 259 252 249 247 242 238 236 234 229 227 228 204 53 191 224 154 147 146 137 157 125 64 26 11 37 36 38 50 58 43 43 36 40 40 68 40 52 53 84 98 105
266 264 262 259 255 252 247 243 240 236 233 229 225 225 212 198 183 204 216 125 128 134 135 114 76 66 17 10 33 13 34 76 60 70 55 52 63 33 51 61 28 68 97 105 108
267 263 258 255 251 249 247 244 240 235 230 225 223 220 206 172 187 237 104 113 130 130 133 125 84 80 55 33 44 50 49 92 59 61 48 51 34 43 20 78 66 78 104 106 107
269 263 258 255 252 250 249 247 240 232 223 220 221 225 209 166 147 213 159 137 128 129 102 128 114 70 120 69 70 57 6 8 38 42 38 34 58 98 46 57 67 82 104 119 128
274 268 261 257 256 256 255 251 245 235 225 225 231 241 212 201 219 194 135 138 121 122 109 102 90 65 86 103 60 34 27 351 8 30 21 26 16 19 46 54 64 72 89 118 139
280 274 268 263 261 260 257 252 253 270 276 287 283 276 262 241 204 157 112 73 87 78 74 62 54 47 60 40 35 19 360 329 4 16 15 25 344 24 30 73 67 72 99 127 145
285 280 275 272 271 272 267 269 324 320 307 295 306 290 275 340 332 4 66 53 25 32 28 27 26 44 39 16 26 355 360 273 275 7 50 52 218 191 21 46 80 101 116 125 152
287 282 277 273 276 281 293 322 301 301 301 321 326 327 318 302 340 352 25 52 8 3 21 357 44 140 64 18 30 29 13 261 267 59 46 47 201 231 56 87 109 160 166 165 166
291 285 281 279 282 284 305 309 319 324 303 320 324 299 311 325 330 341 53 47 5 19 349 348 166 16 355 3 3 6 96 270 277 12 31 18 236 227 46 164 167 186 186 183 178
293 288 287 288 289 312 312 314 321 323 322 325 334 326 320 353 352 355 72 15 354 351 347 347 5 5 355 359 15 42 53 349 327 302 9 358 7 17 7 33 66 173 186 186 179
291 288 291 302 324 331 320 323 306 324 321 332 337 337 343 349 352 348 31 9 343 358 338 341 341 3 54 11 39 347 19 352 322 312 323 352 331 276 7 12 82 111 173 179 174
284 279 288 317 333 329 332 304 353 347 317 330 353 357 19 30 5 353 351 24 71 19 21 25 25 26 3 3 20 343 345 325 328 342 340 352 349 350 331 340 334 6 125 150 159
291 299 350 351 319 308 298 337 331 337 310 345 11 13 34 354 354 12 18 357 354 359 352 2 342 348 355 347 345 330 335 347 354 354 354 351 351 330 336 324 312 332 51 110 138
295 312 33 6 336 304 321 332 314 312 328 329 337 12 15 27 3 7 36 70 36 6 21 7 191 354 339 327 332 340 342 332 340 346 336 350 348 334 266 312 310 302 29 90 119
311 44 60 351 314 305 347 325 314 323 323 338 340 6 359 4 341 342 350 348 345 338 335 330 340 8 9 357 348 347 336 333 333 330 317 339 338 333 311 305 315 323 355 45 98
52 17 4 292 335 6 339 301 317 323 315 324 356 354 346 342 350 354 352 345 342 340 340 342 335 339 337 341 346 337 332 331 329 328 327 326 331 305 324 318 322 335 344 19 72
13 18 335 326 348 341 309 306 332 340 324 348 344 338 340 334 338 338 338 342 344 347 339 338 329 335 338 337 326 320 340 331 331 328 321 320 316 315 301 307 312 320 319 23 35
1 357 348 350 336 338 344 313 311 338 334 337 347 347 344 338 331 330 327 330 328 330 337 331 326 322 330 335 332 334 324 322 323 320 315 309 311 322 305 301 309 311 310 334 24
348 326 354 351 336 336 349 328 319 329 330 344 352 349 345 339 336 335 333 333 329 330 323 321 317 316 308 318 319 317 316 312 306 314 309 308 302 310 300 290 305 314 313 300 345
340 347 349 346 348 348 344 356 344 344 347 351 355 350 350 347 340 340 336 337 334 332 332 329 326 317 317 316 314 312 319 317 311 308 301 300 301 304 295 287 293 307 314 317 320
341 332 331 339 338 338 346 349 356 347 349 350 351 346 344 341 336 337 332 330 325 329 330 329 320 314 309 312 313 308 304 300 303 300 298 292 293 286 288 289 285 292 307 311 303
331 331 330 333 335 340 347 349 352 349 349 346 344 340 336 331 330 328 329 326 327 325 325 325 318 316 312 310 307 303 298 297 293 289 291 292 285 281 286 281 284 292 296 303 302
335 329 338 333 336 344 339 342 342 340 337 335 334 334 332 329 329 327 328 328 327 329 325 325 319 319 312 312 307 300 290 292 289 288 284 285 276 286 286 287 283 291 288 299 300
341 349 339 331 336 338 337 340 340 341 341 340 336 333 329 329 328 326 323 319 317 316 317 316 316 319 316 322 320 312 308 298 295 292 290 282 283 284 286 286 287 287 289 288 295